Simultaneous Nadir Overpasses (SNOs) Predictions

Prediction of SNOs between FY3D and TERRA Satellite Orbit:

Table of predicted SNOs for the next 14.0 days since TLE Epoch: 5/11/2024
Index Date (FY3D) Time (FY3D) Lat,Lon (FY3D) SZA (FY3D ) Date (TERRA) Time (TERRA) Lat,Lon (TERRA) SZA (TERRA ) Distance(km) Time Diff (sec)
1 05/12/2024 21:33:26 -75.49, 36.81 123.03 05/12/2024 21:33:55 -75.52, 36.79 123.00 3.33 29
2 05/12/2024 22:24:11 75.43,-155.70 56.91 05/12/2024 22:23:17 75.44,-155.77 56.92 1.91 54
3 05/15/2024 08:46:24 -75.55,-131.57 123.56 05/15/2024 08:47:17 -75.56,-131.46 123.54 3.66 53
4 05/15/2024 09:37:09 75.50, 35.90 56.39 05/15/2024 09:36:39 75.47, 35.96 56.37 3.05 30
5 05/17/2024 19:59:23 -75.72, 59.69 123.94 05/17/2024 20:00:35 -75.62, 60.34 124.04 20.68 72
6 05/17/2024 20:50:04 75.49,-132.26 55.83 05/17/2024 20:49:57 75.52,-132.28 55.86 3.79 7
7 05/17/2024 21:40:36 -74.89, 36.88 124.77 05/17/2024 21:39:31 -74.93, 33.81 124.75 89.04 65
8 05/20/2024 08:03:01 75.55, 59.37 55.36 05/20/2024 08:03:14 75.53, 59.39 55.35 1.56 13
9 05/20/2024 08:53:45 -75.50,-133.17 124.69 05/20/2024 08:52:37 -75.50,-133.04 124.70 3.71 68
10 05/22/2024 19:15:57 75.58,-108.90 54.90 05/22/2024 19:16:28 75.56,-108.89 54.88 2.30 31



Historial Predications of SNOs between FY3D and TERRA
